Terminal Aerodrome Forecast
Issued by NWS Charleston, WV

Current Version | Previous Version | Graphics & Text | Print | Product List | Glossary On
Versions: 1 2 3 4 5 6 7 8 9 10 11 12 13 14 15 16 17 18 19 20 21 22 23
000
FTUS41 KRLX 230719 AAA
TAFCRW
TAF AMD
KCRW 230719Z 2307/2406 25010G15KT 6SM -TSRA BKN050CB
     FM231400 24005KT P6SM SCT050 BKN200
     FM231700 23008KT P6SM VCTS BKN050CB=

USA.gov is the U.S. government's official web portal to all federal, state and local government web resources and services.